This is the latest recevied weather packets stored in our database for station/object 4S6DRJ-13. If no packets are shown the sender has not sent any weather packets the latest 10 day(s).
| Time | Temp. | Humidity | Pressure | Rain* | Wind** | Luminosity | Snow |
|---|---|---|---|---|---|---|---|
| 1788113330 | 28.33° C | 84% | 1010.5 hPa | 0 mm | 1.34 m/s, 247° | 0 W/m² | - |
| 1788113269 | 28.33° C | 84% | 1010.8 hPa | 0 mm | 1.79 m/s, 259° | 0 W/m² | - |
| 1788113208 | 28.33° C | 84% | 1010.5 hPa | 0 mm | 1.34 m/s, 291° | 0 W/m² | - |
| 1788113147 | 28.33° C | 84% | 1010.5 hPa | 0 mm | 1.34 m/s, 204° | 0 W/m² | - |
| 1788113086 | 28.33° C | 84% | 1010.8 hPa | 0 mm | 0.89 m/s, 259° | 0 W/m² | - |
| 1788113025 | 28.33° C | 84% | 1010.6 hPa | 0 mm | 1.34 m/s, 207° | 0 W/m² | - |
| 1788112964 | 28.33° C | 85% | 1010.6 hPa | 0 mm | 1.34 m/s, 244° | 0 W/m² | - |
| 1788112903 | 28.33° C | 84% | 1010.7 hPa | 0 mm | 2.24 m/s, 233° | 0 W/m² | - |
| 1788112843 | 28.33° C | 85% | 1010.7 hPa | 0 mm | 0.89 m/s, 189° | 0 W/m² | - |
| 1788112781 | 28.33° C | 84% | 1010.7 hPa | 0 mm | 0.89 m/s, 235° | 0 W/m² | - |
| 1788112720 | 28.33° C | 84% | 1010.6 hPa | 0 mm | 0 m/s | 0 W/m² | - |
| 1788112659 | 28.33° C | 84% | 1010.8 hPa | 0 mm | 1.34 m/s, 190° | 0 W/m² | - |
| 1788112598 | 28.33° C | 84% | 1010.5 hPa | 0 mm | 1.34 m/s, 196° | 0 W/m² | - |
| 1788112537 | 28.33° C | 84% | 1010.5 hPa | 0 mm | 1.34 m/s, 257° | 0 W/m² | - |
| 1788112476 | 28.33° C | 84% | 1010.6 hPa | 0 mm | 0.89 m/s, 226° | 0 W/m² | - |
| 1788112419 | 28.33° C | 84% | 1010.6 hPa | 0 mm | 1.34 m/s, 255° | 0 W/m² | - |
| 1788112354 | 28.33° C | 84% | 1010.8 hPa | 0 mm | 1.79 m/s, 182° | 0 W/m² | - |
| 1788112293 | 28.33° C | 84% | 1010.6 hPa | 0 mm | 0.45 m/s, 211° | 0 W/m² | - |
| 1788112233 | 28.33° C | 84% | 1010.8 hPa | 0 mm | 1.34 m/s, 195° | 0 W/m² | - |
| 1788112172 | 28.33° C | 84% | 1010.5 hPa | 0 mm | 0.45 m/s, 233° | 0 W/m² | - |
| 1788112110 | 28.33° C | 84% | 1010.7 hPa | 0 mm | 0.89 m/s, 232° | 0 W/m² | - |
| 1788112049 | 28.33° C | 84% | 1010.7 hPa | 0 mm | 0.89 m/s, 243° | 0 W/m² | - |
| 1788111989 | 28.33° C | 84% | 1010.7 hPa | 0 mm | 0.45 m/s, 243° | 0 W/m² | - |
| 1788111927 | 28.33° C | 84% | 1010.7 hPa | 0 mm | 0 m/s | 0 W/m² | - |
| 1788111866 | 28.33° C | 84% | 1010.9 hPa | 0 mm | 1.34 m/s, 210° | 0 W/m² | - |
* Rain latest hour (hover to see other rain measurements)
** Current wind speed in m/s (hover to see current wind gust speed)